NOAA NWS Hourly Roundups by Site

Regional Weather Roundup for San Diego, CA

To Select Another Site Choose from List

Select Site:  

000
ASUS46 KSGX 232111
RWRSGX

SAN DIEGO HOURLY WEATHER ROUNDUP
NATIONAL WEATHER SERVICE SAN DIEGO CA
200 PM PDT MON MAY 23 2022

NOTE: "FAIR" INDICATES FEW OR NO CLOUDS BELOW 12,000 FEET WITH NO
SIGNIFICANT WEATHER AND/OR OBSTRUCTIONS TO VISIBILITY.

CAZ042-043-060-061-PZZ750-775-232200-

GREATER SAN DIEGO AREA

CITY           SKY/WX    TMP DP  RH WIND       PRES   REMARKS
SAN DIEGO AP   PTSUNNY   63  54  72 SW10      29.92F
BROWN FIELD    MOSUNNY   69  54  58 W9G17     29.90F
MIRAMAR MCAS   SUNNY     66  53  63 NW7       29.90F
MONTGOMERY FLD SUNNY     68  54  60 VRB7      29.91S
GILLESPIE FLD  SUNNY     72  54  53 W10       29.89F
LEMON GROVE      N/A     65  57  73 S3        29.88S

$$

NORTH SAN DIEGO COUNTY

CITY           SKY/WX    TMP DP  RH WIND       PRES   REMARKS
CAMP PENDLETON PTSUNNY   67  56  67 SW9       29.90F
OCEANSIDE AP   CLOUDY    65  55  70 W10       29.91S
OCEANSIDE HBR    N/A     62  58  87 SW6       29.97F
VISTA            N/A     65  58  77 W1        29.89S
CARLSBAD       CLOUDY    60  54  80 SW7       29.90F
ENCINITAS        N/A     63  58  83 SW3         N/A
LA JOLLA SCRIP   N/A     61  54  78 CALM      29.91F
FALLBROOK      FAIR      70  55  60 SW12G17   29.90F
ESCONDIDO        N/A     73  58  60 NW9       29.88F
SAN MARCOS       N/A     67  58  72 NW3       29.93F
RANCHO BERNARD   N/A     69  57  66 W7        29.88F
POWAY            N/A     73  58  59 SW3       29.91S

$$

EAST SAN DIEGO COUNTY

CITY           SKY/WX    TMP DP  RH WIND       PRES   REMARKS
RAMONA         SUNNY     74  53  48 W8G18     29.89F
SANTEE           N/A     75  58  55 CALM      29.85S
LA MESA          N/A     70  57  64 NW5       29.84
EL CAJON         N/A     72  58  61 E3        29.76F
ALPINE           N/A     74  55  50 W3        30.05F
DESCANSO N       N/A     75  53  46 W6        29.89S

$$

ORANGE COUNTY AND THE LOS ANGELES BASIN

CITY           SKY/WX    TMP DP  RH WIND       PRES   REMARKS
JOHN WAYNE AP  MOSUNNY   68  54  60 SW9       29.90F
LAKE FOREST FR   N/A     70  54  56 NW6       29.77F
HUNTINGTON BCH   N/A     68  59  73 SW2       29.90F
LOS ALAMITOS   CLOUDY    63  51  66 S6        29.88F
FULLERTON      CLOUDY    66  54  65 SW7       29.89F
LONG BEACH     CLOUDY    63  54  72 S8        29.90F
L.A. AP        PTSUNNY   67  55  65 SW10      29.91F
L.A. DOWNTOWN  MOSUNNY   68  55  63 MISG      29.88F

$$

THE INLAND EMPIRE

CITY           SKY/WX    TMP DP  RH WIND       PRES   REMARKS
CORONA         SUNNY     73  55  53 W10G21    29.87F
UPLAND AP      FAIR      72  54  53 W9        29.88F
CHINO          SUNNY     78  52  40 W10       29.87F
ONTARIO        MOSUNNY   74  54  49 W9        29.87F
SAN BERNARDINO SUNNY     77  46  33 NW5       29.86F HAZE
RIVERSIDE AP   SUNNY     76  53  44 W10       29.86F
MORENO VALLEY    N/A     79  59  49 W7        29.80F
MARCH ARB      MOSUNNY   78  51  38 NW9       29.87F
HORSETHIEF CYN   N/A     76  50  39 NW5       29.83F
PERRIS           N/A     80  50  36 NW7       29.87F
LAKE ELSINORE    N/A     81  56  41 CALM      29.77F
HEMET AP       FAIR      82  51  34 S15       29.86F
FRENCH VALLEY  FAIR      75  52  43 SW8       29.88F
TEMECULA         N/A     76  58  52 W6        29.81F

$$

SAN BERNARDINO AND RIVERSIDE COUNTY MOUNTAINS

CITY           SKY/WX    TMP DP  RH WIND       PRES   REMARKS
BIG BEAR AP    SUNNY     70  23  17 E8        30.12F
BIG BEAR LAKE    N/A     72  30  21 NW3       29.80F
WRIGHTWOOD       N/A     72  29  20 NE3       29.75S
IDYLLWILD        N/A     74  47  38 W5        29.74F
TORO PEAK        N/A     58  28  32 S1          N/A

$$

SOUTHERN DESERT INCLUDING THE COACHELLA VALLEY

CITY           SKY/WX    TMP DP  RH WIND       PRES   REMARKS
PALM SPRINGS   SUNNY     95  44  17 MISG      29.76F
THOUSAND PALMS   N/A     94  51  22 SE5       29.70F
INDIO            N/A     93  49  22 S3        29.72F
THERMAL        SUNNY     95  46  18 SE10G18   29.72F
BORREGO AP     FAIR      93  39  15 SE8       29.76F
OCOTILLO WELLS   N/A     96  47  18 SW1       29.72F
CANEBRAKE        N/A     90  34  14 S7        29.69F
BLYTHE         SUNNY     94  40  15 VRB7      29.74F
IMPERIAL AP    SUNNY     92  48  22 VRB6      29.73F
EL CENTRO NAS  MOSUNNY   95  48  20 S6        29.75F
YUMA AZ        SUNNY     94  38  14 SE8       29.75F

$$

UPPER DESERT

CITY           SKY/WX    TMP DP  RH WIND       PRES   REMARKS
VICTORVILLE AP SUNNY     86  19   8 NW10      29.92F
HESPERIA         N/A     87  26  11 NW3       29.60F
APPLE VALLEY     N/A     89  31  12 N9        29.80F
PALMDALE       SUNNY     87  27  11 VRB3G18   29.88F
LANCASTER      SUNNY     90  29  11 N10G16    29.86F
EDWARDS AFB    MOSUNNY   87  26  11 NE5       29.85F
DAGGETT        SUNNY     91  18   7 E9        29.84F
29 PALMS N     SUNNY     92  23   8 VRB3      29.89F
NEEDLES        MOSUNNY   95  18   6 NW6       29.76F

$$

REGIONAL REPORTS

CITY           SKY/WX    TMP DP  RH WIND       PRES   REMARKS
SANTA BARBARA  PTSUNNY   63  54  72 VRB7      29.91F
SANDBERG       SUNNY     77  27  15 MISG      30.03F
LAS VEGAS NV   PTSUNNY   86  22   9 E8        29.86F
PHOENIX AZ     MOSUNNY   93  22   7 SW7       29.75F
TIJUANA        MOSUNNY   68  55  64 NW8       29.93S
ENSENADA NW      N/A     61  32  33 W12       29.89F

$$

OFFSHORE ISLANDS

CITY           SKY/WX    TMP DP  RH WIND       PRES   REMARKS
CATALINA ARPT  SUNNY     61  52  72 VRB5      29.92F
SAN CLEMENTE I MOSUNNY   59  52  77 W8        29.92F
SAN NICOLAS IS MOSUNNY   63  52  67 S8        29.91F

$$

MARINE AND OFFSHORE BUOY REPORTS

STATION/POSITION SKY/WX   TEMP    WIND        PRES    VSBY  SWELL
                          AIR SEA DIR/SP/G                  HT/PER/DIR
                          (F)     (DEG/KT/KT) (MB)    (MI)  (FT/S/D)
TANNER BANKS               56 56  340/  8/ 12 1012.4F         7/320/ 9
S CLEMENTE BASIN           58 62  210/  4/  8 1012.6F         5/200/14
SAN NICOLAS IS.               57                N/A           3/310/11
SO. S. ROSA ISLA                              1014.2F         7/310/ 9
W. S. BARBARA CH              56  310/  8/ 12 1013.1F         7/300/ 9
M. S. BARBARA CH           56 60  280/  6/  8 1013.7F         3/260/ 9
S. MONICA BASIN            59 62  220/  4/  6 1013.1F         3/220/16
S PEDRO CHANNEL               62                N/A           2/170/13
OCEANSIDE OFFSHR              63                N/A           2/190/15
TORREY PINES OTR              63                N/A           2/220/15
SAN DIEGO BAY                 67              1012.7F
IMPERIAL BEACH             60 63                N/A           2/240/15
POINT LOMA SOUTH              62                N/A           2/190/17

$$



 

View Past Reports for San Diego, CA.

Products Courtesy of NOAA-NWS
NWS Information Parsing Script by Ken True at Saratoga Weather - Script by SE Lincoln Weather.